This demonstration page uses our WeatherBlox Daily Observations layout. Learn more.

Left ArrowRight Arrow

39.12711, -84.51439

Hourly Observations for November 26, 2021

Temp ( °F °C ) Dew Point ( °F °C ) Humidity (%) Winds ( mph kmh ) Pressure ( in mb ) Visibility ( mi km ) Precip ( " mm )
12:00 am 00:00 Cloudy 38 3.3 30 -1.1 73 73 NW 14 22 30.14 1021 10 16 0.00 0.00
12:48 am 00:48 Cloudy 37 3 28 -2 70 70 W 17 28 30.15 1021 10 16 0.00 0.00
12:53 am 00:53 Cloudy 37 2.8 29 -1.7 73 73 W 14 22 30.14 1021 10 16 0.00 0.00
1:53 am 01:53 Cloudy 35 1.7 27 -2.8 72 72 W 12 19 30.15 1021 10 16 0.00 0.00
2:53 am 02:53 Cloudy 34 1.1 26 -3.3 73 73 W 14 22 30.16 1022 10 16 0.00 0.00
3:53 am 03:53 Cloudy 34 1.1 25 -3.9 70 70 WNW 10 17 30.18 1022 10 16 0.00 0.00
4:07 am 04:07 Cloudy 33 0.6 24 -4.4 70 70 NW 10 17 30.20 1023 10 16 0.00 0.00
4:53 am 04:53 Cloudy 33 0.6 24 -4.4 70 70 WNW 13 20 30.18 1022 10 16 0.00 0.00
5:53 am 05:53 Cloudy 32 0 23 -5 69 69 W 12 19 30.19 1023 10 16 0.00 0.00
6:53 am 06:53 Cloudy 32 0 21 -6.1 64 64 NW 9 15 30.21 1023 10 16 0.00 0.00
7:53 am 07:53 Cloudy 31 -0.6 21 -6.1 67 67 WNW 10 17 30.22 1023 10 16 0.00 0.00
8:53 am 08:53 Cloudy 31 -0.6 21 -6.1 67 67 WNW 12 19 30.24 1024 10 16 0.00 0.00
9:53 am 09:53 Mostly Cloudy 32 0 19 -7.2 59 59 WNW 13 20 30.26 1025 10 16 0.00 0.00
10:53 am 10:53 Mostly Cloudy 32 0 20 -6.7 61 61 WNW 8 13 30.27 1025 10 16 0.00 0.00
11:53 am 11:53 Mostly Cloudy 33 0.6 20 -6.7 58 58 W 8 13 30.26 1025 10 16 0.00 0.00
12:53 pm 12:53 Mostly Cloudy 35 1.7 21 -6.1 57 57 WNW 8 13 30.24 1024 10 16 0.00 0.00
1:53 pm 13:53 Mostly Sunny 37 2.8 19 -7.2 48 48 NNW 9 15 30.20 1023 10 16 0.00 0.00
2:53 pm 14:53 Mostly Sunny 36 2.2 18 -7.8 48 48 WSW 9 15 30.20 1023 10 16 0.00 0.00
3:53 pm 15:53 Mostly Cloudy 35 1.7 18 -7.8 50 50 W 6 9 30.18 1022 10 16 0.00 0.00
4:53 pm 16:53 Cloudy 34 1.1 19 -7.2 54 54 WSW 7 11 30.18 1022 10 16 0.00 0.00
5:53 pm 17:53 Cloudy 34 1.1 19 -7.2 54 54 W 8 13 30.18 1022 10 16 0.00 0.00
6:53 pm 18:53 Cloudy 32 0 21 -6.1 64 64 WSW 5 7 30.17 1022 10 16 0.00 0.00
7:53 pm 19:53 Cloudy 34 1.1 19 -7.2 54 54 WNW 6 9 30.17 1022 10 16 0.00 0.00
8:53 pm 20:53 Cloudy 33 0.6 19 -7.2 56 56 W 7 11 30.16 1021 10 16 0.00 0.00
9:53 pm 21:53 Cloudy 32 0 21 -6.1 64 64 WSW 5 7 30.16 1021 10 16 0.00 0.00
10:53 pm 22:53 Cloudy 31 -0.6 22 -5.6 69 69 SW 5 7 30.15 1021 10 16 0.00 0.00
11:53 pm 23:53 Partly Cloudy 29 -1.7 20 -6.7 69 69 SW 6 9 30.15 1021 10 16 0.00 0.00

Powered by AerisWeather